Terug naar catalogus

SL-8 DEB

ActiefPO
NORAD 26743·DEBRIS·🇷🇺 Russia

Gelanceerd Apr 7, 1979 vanaf Plesetsk Cosmodrome

Loading…

Volgende Passages (komende 24 uur)

TLE

VerouderendSource: Space-Track

Epoch: Sep 9, 2026, 18:46 UTC

1 26743U 79028C   26252.78203065  .00000070  00000-0  56242-4 0  9996
2 26743  82.9195  59.7559 0028770 248.0224 111.7875 13.75875962745160

Volg SL-8 DEB in realtime met AllMySat

Download on the App Store